sat.trackr.live / text

‹ back to catalog

COSMOS 2527 (756)

NORAD 43508 · 2018-053A

PAYLOAD ACTIVE UNKNOWN

§ Identity

Operator
Country
CIS
Launch date
2018-06-16
Launch site
PLMSC
Launch vehicle
Mass (kg)
RCS (m²)

Purposes: nav

External: N2YO · Heavens-Above · Gunter

§ Orbital elements

Epoch: 2026-05-24T03:39:18.124704Z

Period
675.73 min
Inclination
65.5655°
Eccentricity
0.0007600
Mean motion
2.13102017 rev/d
Perigee alt
19,110.5 km
Apogee alt
19,149.3 km
Semi-major
25,508.0 km
B*
0.0000e+0
RAAN
74.7084°
Arg perigee
245.1002°
Mean anomaly
114.8130°
Rev number
6,176

§ Raw data

COSMOS 2527 (756)1 43508U 18053A   26144.15229311 -.00000027  00000+0  00000+0 0  99962 43508  65.5655  74.7084 0007600 245.1002 114.8130  2.13102017 61766

JSON: /api/v1/satellites/43508 · /tle

For live sub-satellite position, see the globe view (requires WebGL).

§ Visibility from observer

Set your observer location to see the next 7 days of passes ≥ 10°. The values pass through the URL so the page stays shareable.

No JS? Fill the form by hand. The geolocation button needs JavaScript.